Simultaneous Nadir Overpasses (SNOs) Predictions

Prediction of SNOs between AQUA and METOP-B Satellite Orbit:

Table of predicted SNOs for the next 14.0 days since TLE Epoch: 6/16/2017
Index Date (AQUA) Time (AQUA) Lat,Lon (AQUA) SZA (AQUA ) Date (METOP-B) Time (METOP-B) Lat,Lon (METOP-B) SZA (METOP-B ) Distance(km) Time Diff (sec)
1 06/18/2017 19:37:54 73.80,-120.20 50.40 06/18/2017 19:37:18 73.78,-120.13 50.39 2.54 36
2 06/18/2017 20:27:20 -73.83, 47.37 129.57 06/18/2017 20:27:58 -73.86, 47.38 129.55 2.92 38
3 06/21/2017 15:12:07 73.77, -53.69 50.35 06/21/2017 15:11:39 73.77, -53.74 50.37 1.79 28
4 06/21/2017 16:01:34 -73.85, 113.78 129.57 06/21/2017 16:02:19 -73.85, 113.77 129.57 0.47 45
5 06/24/2017 09:56:40 -73.09,-153.46 130.33 06/24/2017 09:55:34 -73.07,-156.26 130.23 90.66 66
6 06/24/2017 10:46:21 73.80, 12.69 50.43 06/24/2017 10:45:59 73.81, 12.76 50.44 2.79 22
7 06/24/2017 11:35:48 -73.87,-179.83 129.50 06/24/2017 11:36:40 -73.84,-179.85 129.53 2.97 52
8 06/27/2017 05:30:58 -73.38, -87.61 129.93 06/27/2017 05:29:49 -73.31, -89.33 129.92 55.39 69
9 06/27/2017 06:20:33 73.78, 79.17 50.50 06/27/2017 06:20:19 73.80, 79.13 50.53 2.50 14
10 06/27/2017 07:10:01 -73.90,-113.45 129.37 06/27/2017 07:10:59 -73.88,-113.35 129.40 3.51 58
11 06/30/2017 01:05:17 -73.67, -21.79 129.47 06/30/2017 01:04:04 -73.60, -22.27 129.51 17.36 73
12 06/30/2017 01:54:47 73.82, 145.52 50.70 06/30/2017 01:54:39 73.84, 145.63 50.71 3.69 8
13 06/30/2017 02:44:14 -73.88, -46.96 129.24 06/30/2017 02:45:20 -73.87, -46.97 129.26 0.85 66




NCC Satellite Simultaneous Nadir Overpasses (SNOs) Prediction Service
